Weather History for KRBD - April, 2014

Change the Weather History Date:

Tuesday, April 22, 2014

  Actual Average Record
Temperature  
Mean Temperature 72 °F -  
Max Temperature 84 °F 74 °F 91 °F (2009)
Min Temperature 59 °F 55 °F 52 °F (1998)
Cooling Degree Days 6    
Growing Degree Days 22 (Base 50)    
Moisture  
Dew Point 60 °F    
Average Humidity 80    
Maximum Humidity 96    
Minimum Humidity 37    
Precipitation  
Precipitation 0.00 in - - ()
Sea Level Pressure  
Sea Level Pressure 29.99 in    
Wind  
Wind Speed 2 mph (North)    
Max Wind Speed 13 mph    
Max Gust Speed 18 mph    
Visibility 4 miles    
Events Fog    
Averages and records for this station are not official NWS values.
T = Trace of Precipitation, MM = Missing Value Source: NWS Daily Summary

Daily Weather History Graph

Daily Weather History Graph

Search for Another Location

Airport or City:

Trip Planner

Search our weather history database for the weather conditions in past years. The results will help you decide how hot, cold, wet, or windy it might be!

Date:

Astronomy

Apr. 22, 2014 Rise Set
Actual Time 6:49 AM CDT 8:02 PM CDT
Civil Twilight 6:24 AM CDT 8:28 PM CDT
Nautical Twilight 5:53 AM CDT 8:58 PM CDT
Astronomical Twilight 5:22 AM CDT 9:30 PM CDT
Moon 2:16 AM CDT (4/22) 1:27 PM CDT (4/22)
Length of Visible Light 14h 04m
Length of Day
13h 12m
Last Quarter, 46% of the Moon is Illuminated
Apr 22
Last Quarter
Apr 29
New
May 6
First Quarter
May 14
Full
May 21
Last Quarter

Hourly Weather History & Observations

Time (CDT) Temp. Heat Index Dew Point Humidity Pressure Visibility Wind Dir Wind Speed Gust Speed Precip Events Conditions
12:53 AM 64.0 °F - 61.0 °F 90% 29.99 in 5.0 mi Calm Calm - N/A   Clear
1:05 AM 64.4 °F - 60.8 °F 88% 30.00 in 1.8 mi Calm Calm - N/A   Clear
1:16 AM 64.4 °F - 62.6 °F 94% 30.00 in 0.5 mi Calm Calm - N/A Fog Fog
1:29 AM 62.6 °F - 60.8 °F 94% 30.00 in 1.0 mi Calm Calm - N/A   Clear
1:41 AM 64.4 °F - 62.6 °F 94% 30.00 in 1.0 mi Calm Calm - N/A   Mist
1:45 AM 64.4 °F - 62.6 °F 94% 30.00 in 2.0 mi Calm Calm - N/A   Clear
1:53 AM 64.0 °F - 62.1 °F 93% 29.97 in 2.5 mi Calm Calm - N/A   Clear
2:12 AM 62.6 °F - 60.8 °F 94% 30.00 in 0.8 mi Calm Calm - N/A   Clear
2:24 AM 62.6 °F - 60.8 °F 94% 30.00 in 0.2 mi Calm Calm - N/A Fog Fog
2:31 AM 62.6 °F - 60.8 °F 94% 30.00 in 1.0 mi Calm Calm - N/A   Mist
2:39 AM 62.6 °F - 60.8 °F 94% 30.00 in 0.5 mi Calm Calm - N/A Fog Fog
2:53 AM 62.1 °F - 60.1 °F 93% 29.98 in 0.8 mi Calm Calm - N/A   Mist
3:12 AM 62.6 °F - 60.8 °F 94% 30.00 in 0.8 mi Calm Calm - N/A   Clear
3:25 AM 62.6 °F - 60.8 °F 94% 29.99 in 0.2 mi NNW 3.5 mph - N/A Fog Fog
3:53 AM 62.1 °F - 60.1 °F 93% 29.99 in 0.2 mi Calm Calm - N/A Fog Fog
4:29 AM 62.6 °F - 60.8 °F 94% 30.01 in 0.2 mi North 3.5 mph - N/A Fog Fog
4:45 AM 59.0 °F - 57.2 °F 94% 30.00 in 0.2 mi NNW 4.6 mph - N/A Fog Fog
4:53 AM 60.1 °F - 59.0 °F 96% 29.99 in 0.2 mi NNW 4.6 mph - N/A Fog Fog
5:42 AM 62.6 °F - 60.8 °F 94% 30.00 in 0.2 mi NNW 4.6 mph - N/A Fog Fog
5:53 AM 60.1 °F - 59.0 °F 96% 29.99 in 0.5 mi NNW 4.6 mph - N/A Fog Fog
6:07 AM 60.8 °F - 59.0 °F 94% 30.01 in 0.5 mi North 3.5 mph - N/A Fog Fog
6:17 AM 59.0 °F - 57.2 °F 94% 30.01 in 0.5 mi NNW 4.6 mph - N/A Fog Fog
6:29 AM 60.8 °F - 57.2 °F 88% 30.01 in 1.0 mi NNW 3.5 mph - N/A   Clear
6:53 AM 59.0 °F - 57.0 °F 93% 30.01 in 1.0 mi NNW 4.6 mph - N/A   Clear
7:01 AM 60.8 °F - 57.2 °F 88% 30.03 in 0.8 mi NW 3.5 mph - N/A   Clear
7:27 AM 60.8 °F - 59.0 °F 94% 30.04 in 1.0 mi NNW 5.8 mph - N/A   Clear
7:53 AM 63.0 °F - 61.0 °F 93% 30.04 in 2.0 mi NNW 4.6 mph - N/A   Clear
8:28 AM 66.2 °F - 62.6 °F 88% 30.06 in 3.0 mi North 5.8 mph - N/A   Clear
8:53 AM 69.1 °F - 64.0 °F 84% 30.04 in 6.0 mi North 5.8 mph - N/A   Haze
9:53 AM 73.0 °F - 63.0 °F 71% 30.05 in 10.0 mi North 9.2 mph - N/A   Partly Cloudy
10:53 AM 75.9 °F - 61.0 °F 60% 30.06 in 10.0 mi NE 10.4 mph - N/A   Clear
11:53 AM 79.0 °F - 61.0 °F 54% 30.04 in 10.0 mi NE 12.7 mph 18.4 mph N/A   Mostly Cloudy
12:53 PM 78.1 °F - 59.0 °F 52% 30.03 in 10.0 mi East 8.1 mph - N/A   Partly Cloudy
1:53 PM 81.0 °F 81.1 °F 57.9 °F 45% 30.00 in 10.0 mi East 8.1 mph - N/A   Partly Cloudy
2:53 PM 82.0 °F 81.7 °F 57.0 °F 42% 29.98 in 10.0 mi NE 10.4 mph - N/A   Partly Cloudy
3:53 PM 82.9 °F 82.1 °F 55.9 °F 39% 29.95 in 10.0 mi East 8.1 mph - N/A   Clear
4:53 PM 84.0 °F 82.9 °F 55.0 °F 37% 29.93 in 10.0 mi Variable 6.9 mph - N/A   Clear
5:53 PM 82.0 °F 81.6 °F 55.9 °F 41% 29.92 in 10.0 mi ESE 8.1 mph - N/A   Clear
6:53 PM 80.1 °F 80.2 °F 55.9 °F 43% 29.90 in 10.0 mi SSE 5.8 mph - N/A   Clear
7:53 PM 73.9 °F - 57.0 °F 55% 29.91 in 10.0 mi SE 4.6 mph - N/A   Clear
8:53 PM 71.1 °F - 57.9 °F 63% 29.92 in 10.0 mi Calm Calm - N/A   Clear
9:53 PM 69.1 °F - 57.9 °F 68% 29.93 in 10.0 mi Calm Calm - N/A   Clear
10:53 PM 68.0 °F - 57.9 °F 70% 29.93 in 10.0 mi Calm Calm - N/A   Clear
11:53 PM 64.9 °F - 57.9 °F 78% 29.93 in 10.0 mi Calm Calm - N/A   Clear